VOI1782 KSAN-KPSP

Flight info

Callsign VOI1782
Flight time 0h 25m
Altitude 15000
Route BRDR7 JLI V208 TRM
Aircraft A20N/M-SDE2E3FGHIRWXY/LB1

Departure

Time 2026-05-04 21:50
Airport San Diego International Airport (KSAN)

Arrival

Time 2026-05-04 22:16
Airport Palm Springs International Airport (KPSP)
Time Latitude Longitude Altitude Speed Heading
2026-05-04 20:57 32.73379 -117.20348 26 ft 0 kts 262°
2026-05-04 21:37 32.73380 -117.20340 28 ft 2 kts 260°
2026-05-04 21:37 32.73382 -117.20321 27 ft 2 kts 263°
2026-05-04 21:37 32.73382 -117.20301 27 ft 2 kts 272°
2026-05-04 21:37 32.73380 -117.20282 29 ft 2 kts 322°
2026-05-04 21:38 32.73377 -117.20279 29 ft 0 kts 348°
2026-05-04 21:44 32.73380 -117.20279 25 ft 3 kts
2026-05-04 21:44 32.73458 -117.20259 26 ft 15 kts 16°
2026-05-04 21:44 32.73510 -117.20207 28 ft 10 kts 95°
2026-05-04 21:45 32.73482 -117.20082 28 ft 21 kts 111°
2026-05-04 21:45 32.73461 -117.19910 30 ft 24 kts 93°
2026-05-04 21:45 32.73439 -117.19737 29 ft 19 kts 106°
2026-05-04 21:45 32.73403 -117.19587 30 ft 18 kts 106°
2026-05-04 21:46 32.73371 -117.19452 30 ft 17 kts 105°
2026-05-04 21:46 32.73337 -117.19313 27 ft 18 kts 107°
2026-05-04 21:46 32.73305 -117.19181 27 ft 14 kts 105°
2026-05-04 21:46 32.73280 -117.19078 29 ft 13 kts 107°
2026-05-04 21:47 32.73247 -117.18944 29 ft 21 kts 107°
2026-05-04 21:47 32.73207 -117.18781 33 ft 21 kts 106°
2026-05-04 21:47 32.73165 -117.18601 34 ft 25 kts 105°
2026-05-04 21:47 32.73113 -117.18392 33 ft 23 kts 106°
2026-05-04 21:48 32.73066 -117.18198 31 ft 25 kts 105°
2026-05-04 21:48 32.73028 -117.18038 32 ft 10 kts 106°
2026-05-04 21:48 32.73005 -117.17945 32 ft 14 kts 106°
2026-05-04 21:48 32.72970 -117.17809 32 ft 20 kts 110°
2026-05-04 21:49 32.72962 -117.17650 32 ft 18 kts 67°
2026-05-04 21:49 32.73030 -117.17638 31 ft 11 kts 300°
2026-05-04 21:49 32.73065 -117.17762 31 ft 35 kts 287°
2026-05-04 21:49 32.73212 -117.18368 33 ft 118 kts 286°
2026-05-04 21:50 32.73489 -117.19537 346 ft 163 kts 285°
2026-05-04 21:50 32.73853 -117.20899 1123 ft 176 kts 289°
2026-05-04 21:50 32.74292 -117.22310 1965 ft 191 kts 289°
2026-05-04 21:50 32.74770 -117.23851 2636 ft 210 kts 289°
2026-05-04 21:51 32.75297 -117.25606 3183 ft 236 kts 288°
2026-05-04 21:51 32.75843 -117.27468 4174 ft 240 kts 288°
2026-05-04 21:51 32.76390 -117.29353 5264 ft 242 kts 289°
2026-05-04 21:51 32.76838 -117.31283 6280 ft 243 kts 278°
2026-05-04 21:52 32.76769 -117.33288 7201 ft 247 kts 256°
2026-05-04 21:52 32.75986 -117.35108 8148 ft 251 kts 231°
2026-05-04 21:52 32.74613 -117.36356 9172 ft 256 kts 207°
2026-05-04 21:52 32.72847 -117.36802 10134 ft 269 kts 184°
2026-05-04 21:53 32.70946 -117.36224 10577 ft 303 kts 155°
2026-05-04 21:53 32.69300 -117.34450 10918 ft 338 kts 133°
2026-05-04 21:53 32.67892 -117.32126 11533 ft 353 kts 129°
2026-05-04 21:53 32.66494 -117.29694 12335 ft 360 kts 129°
2026-05-04 21:54 32.65061 -117.27236 13180 ft 365 kts 130°
2026-05-04 21:54 32.63614 -117.24730 13988 ft 372 kts 127°
2026-05-04 21:54 32.62372 -117.21989 14573 ft 382 kts 118°
2026-05-04 21:54 32.61539 -117.18948 14891 ft 394 kts 106°
2026-05-04 21:55 32.61207 -117.15696 14974 ft 400 kts 96°
2026-05-04 21:55 32.61145 -117.12385 14983 ft 403 kts 94°
2026-05-04 21:55 32.61128 -117.09064 14982 ft 404 kts 94°
2026-05-04 21:55 32.61107 -117.05769 14982 ft 404 kts 94°
2026-05-04 21:56 32.61078 -117.02430 14964 ft 404 kts 94°
2026-05-04 21:56 32.61049 -116.99103 14962 ft 404 kts 92°
2026-05-04 21:56 32.61236 -116.95770 14964 ft 406 kts 86°
2026-05-04 21:56 32.61555 -116.92443 14963 ft 406 kts 85°
2026-05-04 21:57 32.61894 -116.89116 14963 ft 407 kts 85°
2026-05-04 21:57 32.62234 -116.85779 14955 ft 407 kts 85°
2026-05-04 21:57 32.62601 -116.82442 14948 ft 410 kts 81°
2026-05-04 21:57 32.63534 -116.79212 14957 ft 417 kts 60°
2026-05-04 21:58 32.65325 -116.76578 14953 ft 407 kts 37°
2026-05-04 21:58 32.67721 -116.74913 14942 ft 395 kts 15°
2026-05-04 21:58 32.70339 -116.73999 14948 ft 392 kts
2026-05-04 21:58 32.72957 -116.73200 14949 ft 392 kts
2026-05-04 21:59 32.75600 -116.72358 14948 ft 393 kts 10°
2026-05-04 21:59 32.78229 -116.71477 14937 ft 393 kts 11°
2026-05-04 21:59 32.80859 -116.70566 14946 ft 394 kts 11°
2026-05-04 21:59 32.83493 -116.69637 14943 ft 399 kts 12°
2026-05-04 22:00 32.86243 -116.68664 14935 ft 425 kts 12°
2026-05-04 22:00 32.89154 -116.67626 14923 ft 446 kts 12°
2026-05-04 22:00 32.92123 -116.66556 14924 ft 454 kts 12°
2026-05-04 22:00 32.95190 -116.65444 14932 ft 456 kts 13°
2026-05-04 22:01 32.98239 -116.64338 14926 ft 458 kts 13°
2026-05-04 22:01 33.01251 -116.63244 14923 ft 458 kts 13°
2026-05-04 22:01 33.04306 -116.62135 14915 ft 458 kts 13°
2026-05-04 22:01 33.07354 -116.61029 14826 ft 456 kts 12°
2026-05-04 22:02 33.10365 -116.59934 14275 ft 450 kts 13°
2026-05-04 22:02 33.13330 -116.58777 13759 ft 450 kts 19°
2026-05-04 22:02 33.16056 -116.56914 13451 ft 454 kts 32°
2026-05-04 22:02 33.18632 -116.54720 13191 ft 452 kts 34°
2026-05-04 22:03 33.21164 -116.52493 12932 ft 451 kts 34°
2026-05-04 22:03 33.23654 -116.50302 12671 ft 450 kts 34°
2026-05-04 22:03 33.26151 -116.48111 12411 ft 436 kts 34°
2026-05-04 22:03 33.28542 -116.46017 12105 ft 413 kts 34°
2026-05-04 22:04 33.30810 -116.44033 11675 ft 394 kts 34°
2026-05-04 22:04 33.32974 -116.42143 11264 ft 377 kts 33°
2026-05-04 22:04 33.35057 -116.40324 10802 ft 364 kts 34°
2026-05-04 22:04 33.37074 -116.38563 10402 ft 351 kts 34°
2026-05-04 22:05 33.39004 -116.36878 10123 ft 335 kts 33°
2026-05-04 22:05 33.40824 -116.35287 9797 ft 322 kts 33°
2026-05-04 22:05 33.42620 -116.33718 9283 ft 316 kts 33°
2026-05-04 22:05 33.44374 -116.32184 8818 ft 308 kts 32°
2026-05-04 22:06 33.46080 -116.30691 8531 ft 297 kts 31°
2026-05-04 22:06 33.47728 -116.29249 8092 ft 290 kts 31°
2026-05-04 22:06 33.49351 -116.27825 7512 ft 287 kts 31°
2026-05-04 22:06 33.50935 -116.26440 7058 ft 283 kts 31°
2026-05-04 22:07 33.52530 -116.25047 6661 ft 284 kts 30°
2026-05-04 22:07 33.54112 -116.23663 6355 ft 276 kts 32°
2026-05-04 22:07 33.55655 -116.22308 5873 ft 272 kts 32°
2026-05-04 22:07 33.57170 -116.20978 5524 ft 265 kts 31°
2026-05-04 22:08 33.58632 -116.19692 5179 ft 258 kts 32°
2026-05-04 22:08 33.60164 -116.18642 4776 ft 250 kts 16°
2026-05-04 22:08 33.61838 -116.18328 4417 ft 239 kts 352°
2026-05-04 22:08 33.63391 -116.18831 4088 ft 233 kts 329°
2026-05-04 22:09 33.64636 -116.20028 3767 ft 228 kts 307°
2026-05-04 22:09 33.65506 -116.21586 3455 ft 224 kts 298°
2026-05-04 22:09 33.66280 -116.23234 3141 ft 229 kts 297°
2026-05-04 22:09 33.67054 -116.24913 2811 ft 228 kts 298°
2026-05-04 22:10 33.67826 -116.26581 2512 ft 227 kts 297°
2026-05-04 22:10 33.68593 -116.28223 2303 ft 225 kts 297°
2026-05-04 22:10 33.69364 -116.29868 2226 ft 228 kts 298°
2026-05-04 22:10 33.70103 -116.31510 2114 ft 220 kts 294°
2026-05-04 22:11 33.70722 -116.33100 1926 ft 201 kts 292°
2026-05-04 22:11 33.71270 -116.34572 1601 ft 188 kts 293°
2026-05-04 22:11 33.71794 -116.35999 1204 ft 183 kts 292°
2026-05-04 22:11 33.72301 -116.37382 1104 ft 176 kts 291°
2026-05-04 22:12 33.72769 -116.38651 1072 ft 157 kts 291°
2026-05-04 22:12 33.73208 -116.39846 1275 ft 162 kts 292°
2026-05-04 22:12 33.73673 -116.41116 1379 ft 169 kts 292°
2026-05-04 22:12 33.74255 -116.42346 1393 ft 170 kts 306°
2026-05-04 22:13 33.75088 -116.43335 1394 ft 167 kts 319°
2026-05-04 22:13 33.75967 -116.44157 1449 ft 153 kts 321°
2026-05-04 22:13 33.76824 -116.44886 1443 ft 146 kts 324°
2026-05-04 22:13 33.77600 -116.45634 1346 ft 140 kts 324°
2026-05-04 22:14 33.78324 -116.46381 1319 ft 134 kts 321°
2026-05-04 22:14 33.79019 -116.47088 1255 ft 129 kts 323°
2026-05-04 22:14 33.79697 -116.47823 1079 ft 133 kts 320°
2026-05-04 22:14 33.80418 -116.48522 875 ft 132 kts 326°
2026-05-04 22:15 33.81150 -116.49143 694 ft 127 kts 325°
2026-05-04 22:15 33.81838 -116.49774 500 ft 119 kts 326°
2026-05-04 22:15 33.82478 -116.50335 423 ft 109 kts 327°
2026-05-04 22:15 33.82968 -116.50764 439 ft 51 kts 323°
2026-05-04 22:16 33.83126 -116.50905 437 ft 24 kts 323°
2026-05-04 22:16 33.83261 -116.51026 446 ft 24 kts 322°
2026-05-04 22:16 33.83322 -116.51153 448 ft 1 kts 241°
2026-05-04 22:16 33.83317 -116.51164 448 ft 0 kts 238°
2026-05-04 22:18 33.83300 -116.51190 448 ft 16 kts 221°
2026-05-04 22:18 33.83207 -116.51184 447 ft 13 kts 157°
2026-05-04 22:19 33.83129 -116.51126 433 ft 15 kts 143°
2026-05-04 22:19 33.83022 -116.51030 432 ft 23 kts 143°
2026-05-04 22:19 33.82887 -116.50908 438 ft 26 kts 143°
2026-05-04 22:19 33.82818 -116.50838 430 ft 0 kts 142°
2026-05-04 22:21 33.82813 -116.50834 433 ft 6 kts 142°
2026-05-04 22:21 33.82710 -116.50737 432 ft 31 kts 142°
2026-05-04 22:21 33.82515 -116.50602 424 ft 20 kts 198°
2026-05-04 22:22 33.82402 -116.50652 421 ft 14 kts 193°
2026-05-04 22:22 33.82387 -116.50656 424 ft 0 kts 193°
2026-05-04 22:22 33.82386 -116.50656 424 ft 0 kts 193°